owner,sensor,date,latitude,longitude,vertical_datum,wind_speed,wind_to_direction,wind_speed_of_gust,qcFlag 
CenGOOS,ioos:station:wmo:42067:1,2011-05-01T12:00:00Z,30.0430,-88.6490,5.0,9.8,150.0,,'1111122,1111122,1111122' 
CenGOOS,ioos:station:wmo:42067:1,2011-05-01T14:00:00Z,30.0430,-88.6490,5.0,7.7,160.0,,'1111122,1111122,1111122' 
CenGOOS,ioos:station:wmo:42067:1,2011-05-01T16:00:00Z,30.0430,-88.6490,5.0,5.7,140.0,,'1111122,1111122,1111122' 
CenGOOS,ioos:station:wmo:42067:1,2011-05-01T18:00:00Z,30.0430,-88.6490,5.0,4.6,120.0,,'1111122,1111122,1111122' 
CenGOOS,ioos:station:wmo:42067:1,2011-05-01T20:00:00Z,30.0430,-88.6490,5.0,6.7,120.0,,'1111122,1111122,1111122' 
CenGOOS,ioos:station:wmo:42067:1,2011-05-01T21:00:00Z,30.0430,-88.6490,5.0,6.7,110.0,,'1111122,1111122,1111122' 
CenGOOS,ioos:station:wmo:42067:1,2011-05-01T23:00:00Z,30.0430,-88.6490,5.0,6.7,120.0,,'1111122,1111122,1111122' 
CenGOOS,ioos:station:wmo:42067:1,2011-05-02T00:00:00Z,30.0430,-88.6490,5.0,7.7,130.0,,'1111122,1111122,1111122' 
CenGOOS,ioos:station:wmo:42067:1,2011-05-02T01:00:00Z,30.0430,-88.6490,5.0,7.7,130.0,,'1111122,1111122,1111122' 
CenGOOS,ioos:station:wmo:42067:1,2011-05-02T02:00:00Z,30.0430,-88.6490,5.0,8.7,130.0,,'1111122,1111122,1111122' 
CenGOOS,ioos:station:wmo:42067:1,2011-05-02T04:00:00Z,30.0430,-88.6490,5.0,10.8,140.0,,'1111122,1111122,1111122' 
CenGOOS,ioos:station:wmo:42067:1,2011-05-02T06:00:00Z,30.0430,-88.6490,5.0,9.8,140.0,,'1111122,1111122,1111122' 
CenGOOS,ioos:station:wmo:42067:1,2011-05-02T08:00:00Z,30.0430,-88.6490,5.0,8.7,150.0,,'1111122,1111122,1111122' 
CenGOOS,ioos:station:wmo:42067:1,2011-05-02T10:00:00Z,30.0430,-88.6490,5.0,5.7,150.0,,'1111122,1111122,1111122' 
CenGOOS,ioos:station:wmo:42067:1,2011-05-02T12:00:00Z,30.0430,-88.6490,5.0,4.6,140.0,,'1111122,1111122,1111122' 
CenGOOS,ioos:station:wmo:42067:1,2011-05-02T14:00:00Z,30.0430,-88.6490,5.0,3.6,140.0,,'1111122,1111122,1111122' 
CenGOOS,ioos:station:wmo:42067:1,2011-05-02T16:00:00Z,30.0430,-88.6490,5.0,5.7,120.0,,'1111122,1111122,1111122' 
CenGOOS,ioos:station:wmo:42067:1,2011-05-02T18:00:00Z,30.0430,-88.6490,5.0,5.7,130.0,,'1111122,1111122,1111122' 
CenGOOS,ioos:station:wmo:42067:1,2011-05-02T20:00:00Z,30.0430,-88.6490,5.0,5.7,140.0,,'1111122,1111122,1111122' 
CenGOOS,ioos:station:wmo:42067:1,2011-05-02T22:00:00Z,30.0430,-88.6490,5.0,5.7,130.0,,'1111122,1111122,1111122' 
CenGOOS,ioos:station:wmo:42067:1,2011-05-03T00:00:00Z,30.0430,-88.6490,5.0,5.7,140.0,,'1111122,1111122,1111122' 
CenGOOS,ioos:station:wmo:42067:1,2011-05-03T02:00:00Z,30.0430,-88.6490,5.0,6.7,150.0,,'1111122,1111122,1111122' 
CenGOOS,ioos:station:wmo:42067:1,2011-05-03T04:00:00Z,30.0430,-88.6490,5.0,6.7,160.0,,'1111122,1111122,1111122' 
CenGOOS,ioos:station:wmo:42067:1,2011-05-03T06:00:00Z,30.0430,-88.6490,5.0,6.7,160.0,,'1111122,1111122,1111122' 
CenGOOS,ioos:station:wmo:42067:1,2011-05-03T08:00:00Z,30.0430,-88.6490,5.0,6.7,170.0,,'1111122,1111122,1111122' 
CenGOOS,ioos:station:wmo:42067:1,2011-05-03T10:00:00Z,30.0430,-88.6490,5.0,6.7,180.0,,'1111122,1111122,1111122' 
CenGOOS,ioos:station:wmo:42067:1,2011-05-04T13:00:00Z,30.0430,-88.6490,5.0,9.8,40.0,,'1111122,1111122,1111122' 
CenGOOS,ioos:station:wmo:42067:1,2011-05-04T15:00:00Z,30.0430,-88.6490,5.0,9.8,50.0,,'1111122,1111122,1111122' 
CenGOOS,ioos:station:wmo:42067:1,2011-05-04T17:00:00Z,30.0430,-88.6490,5.0,10.8,50.0,,'1111122,1111122,1111122' 
CenGOOS,ioos:station:wmo:42067:1,2011-05-05T11:00:00Z,30.0430,-88.6490,5.0,8.7,60.0,,'1111122,1111122,1111122' 
CenGOOS,ioos:station:wmo:42067:1,2011-05-05T13:00:00Z,30.0430,-88.6490,5.0,7.7,80.0,,'1111122,1111122,1111122' 
CenGOOS,ioos:station:wmo:42067:1,2011-05-05T15:00:00Z,30.0430,-88.6490,5.0,8.7,70.0,,'1111122,1111122,1111122' 
CenGOOS,ioos:station:wmo:42067:1,2011-05-05T19:00:00Z,30.0430,-88.6490,5.0,4.6,90.0,,'1111122,1111122,1111122' 
CenGOOS,ioos:station:wmo:42067:1,2011-05-06T00:00:00Z,30.0430,-88.6490,5.0,2.6,180.0,,'1111122,1111122,1111122' 
CenGOOS,ioos:station:wmo:42067:1,2011-05-06T21:00:00Z,30.0430,-88.6490,5.0,3.6,220.0,,'1111122,1111122,1111122' 
CenGOOS,ioos:station:wmo:42067:1,2011-05-06T23:00:00Z,30.0430,-88.6490,5.0,3.6,220.0,,'1111122,1111122,1111122' 
CenGOOS,ioos:station:wmo:42067:1,2011-05-07T00:00:00Z,30.0430,-88.6490,5.0,4.6,220.0,,'1111122,1111122,1111122' 
CenGOOS,ioos:station:wmo:42067:1,2011-05-07T01:00:00Z,30.0430,-88.6490,5.0,4.6,210.0,,'1111122,1111122,1111122' 
CenGOOS,ioos:station:wmo:42067:1,2011-05-07T02:00:00Z,30.0430,-88.6490,5.0,4.6,230.0,,'1111122,1111122,1111122' 
CenGOOS,ioos:station:wmo:42067:1,2011-05-07T03:00:00Z,30.0430,-88.6490,5.0,4.6,230.0,,'1111122,1111122,1111122' 
CenGOOS,ioos:station:wmo:42067:1,2011-05-07T05:00:00Z,30.0430,-88.6490,5.0,4.6,210.0,,'1111122,1111122,1111122' 
CenGOOS,ioos:station:wmo:42067:1,2011-05-07T07:00:00Z,30.0430,-88.6490,5.0,3.6,230.0,,'1111122,1111122,1111122' 
CenGOOS,ioos:station:wmo:42067:1,2011-05-07T09:00:00Z,30.0430,-88.6490,5.0,3.6,220.0,,'1111122,1111122,1111122' 
CenGOOS,ioos:station:wmo:42067:1,2011-05-08T14:00:00Z,30.0430,-88.6490,5.0,4.6,250.0,,'1111122,1111122,1111122' 
CenGOOS,ioos:station:wmo:42067:1,2011-05-08T16:00:00Z,30.0430,-88.6490,5.0,2.6,270.0,,'1111122,1111122,1111122' 
CenGOOS,ioos:station:wmo:42067:1,2011-05-09T04:00:00Z,30.0430,-88.6490,5.0,4.6,220.0,,'1111122,1111122,1111122' 
CenGOOS,ioos:station:wmo:42067:1,2011-05-09T06:00:00Z,30.0430,-88.6490,5.0,4.6,220.0,,'1111122,1111122,1111122' 
CenGOOS,ioos:station:wmo:42067:1,2011-05-09T08:00:00Z,30.0430,-88.6490,5.0,2.6,220.0,,'1111122,1111122,1111122' 
CenGOOS,ioos:station:wmo:42067:1,2011-05-09T10:00:00Z,30.0430,-88.6490,5.0,2.6,220.0,,'1111122,1111122,1111122' 
CenGOOS,ioos:station:wmo:42067:1,2011-05-09T12:00:00Z,30.0430,-88.6490,5.0,2.6,210.0,,'1111122,1111122,1111122' 
CenGOOS,ioos:station:wmo:42067:1,2011-05-09T13:00:00Z,30.0430,-88.6490,5.0,2.6,210.0,,'1111122,1111122,1111122' 
CenGOOS,ioos:station:wmo:42067:1,2011-05-09T16:00:00Z,30.0430,-88.6490,5.0,2.6,210.0,,'1111122,1111122,1111122' 
CenGOOS,ioos:station:wmo:42067:1,2011-05-09T19:00:00Z,30.0430,-88.6490,5.0,1.5,210.0,,'1111122,1111122,1111122' 
CenGOOS,ioos:station:wmo:42067:1,2011-05-09T21:00:00Z,30.0430,-88.6490,5.0,2.6,180.0,,'1111122,1111122,1111122' 
CenGOOS,ioos:station:wmo:42067:1,2011-05-09T23:00:00Z,30.0430,-88.6490,5.0,2.6,180.0,,'1111122,1111122,1111122' 
CenGOOS,ioos:station:wmo:42067:1,2011-05-10T00:00:00Z,30.0430,-88.6490,5.0,3.6,180.0,,'1111122,1111122,1111122' 
CenGOOS,ioos:station:wmo:42067:1,2011-05-10T02:00:00Z,30.0430,-88.6490,5.0,4.6,170.0,,'1111122,1111122,1111122' 
CenGOOS,ioos:station:wmo:42067:1,2011-05-10T04:00:00Z,30.0430,-88.6490,5.0,4.6,180.0,,'1111122,1111122,1111122' 
CenGOOS,ioos:station:wmo:42067:1,2011-05-10T08:00:00Z,30.0430,-88.6490,5.0,5.7,210.0,,'1111122,1111122,1111122' 
CenGOOS,ioos:station:wmo:42067:1,2011-05-10T10:00:00Z,30.0430,-88.6490,5.0,3.6,220.0,,'1111122,1111122,1111122' 
CenGOOS,ioos:station:wmo:42067:1,2011-05-10T12:00:00Z,30.0430,-88.6490,5.0,2.6,250.0,,'1111122,1111122,1111122' 
CenGOOS,ioos:station:wmo:42067:1,2011-05-10T16:00:00Z,30.0430,-88.6490,5.0,0.5,270.0,,'1111122,1111122,1111122' 
CenGOOS,ioos:station:wmo:42067:1,2011-05-10T18:00:00Z,30.0430,-88.6490,5.0,0.5,200.0,,'1111122,1111122,1111122' 
CenGOOS,ioos:station:wmo:42067:1,2011-05-10T20:00:00Z,30.0430,-88.6490,5.0,2.6,220.0,,'1111122,1111122,1111122' 
CenGOOS,ioos:station:wmo:42067:1,2011-05-10T22:00:00Z,30.0430,-88.6490,5.0,2.6,160.0,,'1111122,1111122,1111122' 
CenGOOS,ioos:station:wmo:42067:1,2011-05-10T23:00:00Z,30.0430,-88.6490,5.0,2.6,160.0,,'1111122,1111122,1111122' 
CenGOOS,ioos:station:wmo:42067:1,2011-05-11T01:00:00Z,30.0430,-88.6490,5.0,4.6,140.0,,'1111122,1111122,1111122' 
CenGOOS,ioos:station:wmo:42067:1,2011-05-11T02:00:00Z,30.0430,-88.6490,5.0,4.6,150.0,,'1111122,1111122,1111122' 
CenGOOS,ioos:station:wmo:42067:1,2011-05-11T04:00:00Z,30.0430,-88.6490,5.0,5.7,150.0,,'1111122,1111122,1111122' 
CenGOOS,ioos:station:wmo:42067:1,2011-05-11T06:00:00Z,30.0430,-88.6490,5.0,5.7,170.0,,'1111122,1111122,1111122' 
CenGOOS,ioos:station:wmo:42067:1,2011-05-11T09:00:00Z,30.0430,-88.6490,5.0,2.6,190.0,,'1111122,1111122,1111122' 
CenGOOS,ioos:station:wmo:42067:1,2011-05-12T13:00:00Z,30.0430,-88.6490,5.0,0.5,230.0,,'1111122,1111122,1111122' 
CenGOOS,ioos:station:wmo:42067:1,2011-05-12T15:00:00Z,30.0430,-88.6490,5.0,0.5,40.0,,'1111122,1111122,1111122' 
CenGOOS,ioos:station:wmo:42067:1,2011-05-13T03:00:00Z,30.0430,-88.6490,5.0,6.7,170.0,,'1111122,1111122,1111122' 
CenGOOS,ioos:station:wmo:42067:1,2011-05-13T07:00:00Z,30.0430,-88.6490,5.0,7.7,190.0,,'1111122,1111122,1111122' 
CenGOOS,ioos:station:wmo:42067:1,2011-05-13T09:00:00Z,30.0430,-88.6490,5.0,6.7,210.0,,'1111122,1111122,1111122' 
CenGOOS,ioos:station:wmo:42067:1,2011-05-13T11:00:00Z,30.0430,-88.6490,5.0,6.7,220.0,,'1111122,1111122,1111122' 
CenGOOS,ioos:station:wmo:42067:1,2011-05-13T12:00:00Z,30.0430,-88.6490,5.0,5.7,220.0,,'1111122,1111122,1111122' 
CenGOOS,ioos:station:wmo:42067:1,2011-05-13T13:00:00Z,30.0430,-88.6490,5.0,3.6,210.0,,'1111122,1111122,1111122' 
CenGOOS,ioos:station:wmo:42067:1,2011-05-13T14:00:00Z,30.0430,-88.6490,5.0,3.6,200.0,,'1111122,1111122,1111122' 
CenGOOS,ioos:station:wmo:42067:1,2011-05-13T15:00:00Z,30.0430,-88.6490,5.0,3.6,220.0,,'1111122,1111122,1111122' 
CenGOOS,ioos:station:wmo:42067:1,2011-05-13T16:00:00Z,30.0430,-88.6490,5.0,4.6,210.0,,'1111122,1111122,1111122' 
CenGOOS,ioos:station:wmo:42067:1,2011-05-13T18:00:00Z,30.0430,-88.6490,5.0,8.7,180.0,,'1111122,1111122,1111122' 
CenGOOS,ioos:station:wmo:42067:1,2011-05-13T20:00:00Z,30.0430,-88.6490,5.0,8.7,210.0,,'1111122,1111122,1111122' 
CenGOOS,ioos:station:wmo:42067:1,2011-05-13T23:00:00Z,30.0430,-88.6490,5.0,1.5,240.0,,'1111122,1111122,1111122' 
CenGOOS,ioos:station:wmo:42067:1,2011-05-14T01:00:00Z,30.0430,-88.6490,5.0,3.6,220.0,,'1111122,1111122,1111122' 
CenGOOS,ioos:station:wmo:42067:1,2011-05-14T03:00:00Z,30.0430,-88.6490,5.0,5.7,220.0,,'1111122,1111122,1111122' 
CenGOOS,ioos:station:wmo:42067:1,2011-05-14T07:00:00Z,30.0430,-88.6490,5.0,7.7,240.0,,'1111122,1111122,1111122' 
CenGOOS,ioos:station:wmo:42067:1,2011-05-14T09:00:00Z,30.0430,-88.6490,5.0,8.7,290.0,,'1111122,1111122,1111122' 
CenGOOS,ioos:station:wmo:42067:1,2011-05-14T11:00:00Z,30.0430,-88.6490,5.0,7.7,330.0,,'1111122,1111122,1111122' 
CenGOOS,ioos:station:wmo:42067:1,2011-05-14T17:00:00Z,30.0430,-88.6490,5.0,4.6,330.0,,'1111122,1111122,1111122' 
CenGOOS,ioos:station:wmo:42067:1,2011-05-14T19:00:00Z,30.0430,-88.6490,5.0,4.6,290.0,,'1111122,1111122,1111122' 
CenGOOS,ioos:station:wmo:42067:1,2011-05-14T20:00:00Z,30.0430,-88.6490,5.0,5.7,290.0,,'1111122,1111122,1111122' 
CenGOOS,ioos:station:wmo:42067:1,2011-05-14T21:00:00Z,30.0430,-88.6490,5.0,6.7,280.0,,'1111122,1111122,1111122' 
CenGOOS,ioos:station:wmo:42067:1,2011-05-14T22:00:00Z,30.0430,-88.6490,5.0,6.7,290.0,,'1111122,1111122,1111122' 
CenGOOS,ioos:station:wmo:42067:1,2011-05-15T00:00:00Z,30.0430,-88.6490,5.0,7.7,330.0,,'1111122,1111122,1111122' 
CenGOOS,ioos:station:wmo:42067:1,2011-05-15T01:00:00Z,30.0430,-88.6490,5.0,8.7,340.0,,'1111122,1111122,1111122' 
CenGOOS,ioos:station:wmo:42067:1,2011-05-15T05:00:00Z,30.0430,-88.6490,5.0,7.7,350.0,,'1111122,1111122,1111122' 
CenGOOS,ioos:station:wmo:42067:1,2011-05-15T06:00:00Z,30.0430,-88.6490,5.0,7.7,350.0,,'1111122,1111122,1111122' 
CenGOOS,ioos:station:wmo:42067:1,2011-05-15T08:00:00Z,30.0430,-88.6490,5.0,7.7,350.0,,'1111122,1111122,1111122' 
CenGOOS,ioos:station:wmo:42067:1,2011-05-15T16:00:00Z,30.0430,-88.6490,5.0,4.6,320.0,,'1111122,1111122,1111122' 
CenGOOS,ioos:station:wmo:42067:1,2011-05-16T12:00:00Z,30.0430,-88.6490,5.0,4.6,330.0,,'1111122,1111122,1111122' 
CenGOOS,ioos:station:wmo:42067:1,2011-05-16T14:00:00Z,30.0430,-88.6490,5.0,5.7,320.0,,'1111122,1111122,1111122' 
CenGOOS,ioos:station:wmo:42067:1,2011-05-17T00:00:00Z,30.0430,-88.6490,5.0,9.8,360.0,,'1111122,1111122,1111122' 
CenGOOS,ioos:station:wmo:42067:1,2011-05-17T02:00:00Z,30.0430,-88.6490,5.0,10.8,350.0,,'1111122,1111122,1111122' 
CenGOOS,ioos:station:wmo:42067:1,2011-05-17T04:00:00Z,30.0430,-88.6490,5.0,8.7,350.0,,'1111122,1111122,1111122' 
CenGOOS,ioos:station:wmo:42067:1,2011-05-17T06:00:00Z,30.0430,-88.6490,5.0,8.7,360.0,,'1111122,1111122,1111122' 
CenGOOS,ioos:station:wmo:42067:1,2011-05-17T08:00:00Z,30.0430,-88.6490,5.0,8.7,10.0,,'1111122,1111122,1111122' 
CenGOOS,ioos:station:wmo:42067:1,2011-05-17T09:00:00Z,30.0430,-88.6490,5.0,7.7,20.0,,'1111122,1111122,1111122' 
CenGOOS,ioos:station:wmo:42067:1,2011-05-17T10:00:00Z,30.0430,-88.6490,5.0,6.7,10.0,,'1111122,1111122,1111122' 
CenGOOS,ioos:station:wmo:42067:1,2011-05-17T11:00:00Z,30.0430,-88.6490,5.0,6.7,10.0,,'1111122,1111122,1111122' 
CenGOOS,ioos:station:wmo:42067:1,2011-05-17T12:00:00Z,30.0430,-88.6490,5.0,5.7,10.0,,'1111122,1111122,1111122' 
CenGOOS,ioos:station:wmo:42067:1,2011-05-17T13:00:00Z,30.0430,-88.6490,5.0,6.7,20.0,,'1111122,1111122,1111122' 
CenGOOS,ioos:station:wmo:42067:1,2011-05-17T14:00:00Z,30.0430,-88.6490,5.0,4.6,20.0,,'1111122,1111122,1111122' 
CenGOOS,ioos:station:wmo:42067:1,2011-05-17T17:00:00Z,30.0430,-88.6490,5.0,2.6,320.0,,'1111122,1111122,1111122' 
CenGOOS,ioos:station:wmo:42067:1,2011-05-17T19:00:00Z,30.0430,-88.6490,5.0,4.6,280.0,,'1111122,1111122,1111122' 
CenGOOS,ioos:station:wmo:42067:1,2011-05-17T22:00:00Z,30.0430,-88.6490,5.0,6.7,260.0,,'1111122,1111122,1111122' 
CenGOOS,ioos:station:wmo:42067:1,2011-05-18T06:00:00Z,30.0430,-88.6490,5.0,5.7,40.0,,'1111122,1111122,1111122' 
CenGOOS,ioos:station:wmo:42067:1,2011-05-18T08:00:00Z,30.0430,-88.6490,5.0,4.6,60.0,,'1111122,1111122,1111122' 
CenGOOS,ioos:station:wmo:42067:1,2011-05-18T10:00:00Z,30.0430,-88.6490,5.0,2.6,50.0,,'1111122,1111122,1111122' 
CenGOOS,ioos:station:wmo:42067:1,2011-05-18T16:00:00Z,30.0430,-88.6490,5.0,0.5,80.0,,'1111122,1111122,1111122' 
CenGOOS,ioos:station:wmo:42067:1,2011-05-18T18:00:00Z,30.0430,-88.6490,5.0,2.6,110.0,,'1111122,1111122,1111122' 
CenGOOS,ioos:station:wmo:42067:1,2011-05-18T19:00:00Z,30.0430,-88.6490,5.0,1.5,110.0,,'1111122,1111122,1111122' 
CenGOOS,ioos:station:wmo:42067:1,2011-05-18T21:00:00Z,30.0430,-88.6490,5.0,3.6,160.0,,'1111122,1111122,1111122' 
CenGOOS,ioos:station:wmo:42067:1,2011-05-18T23:00:00Z,30.0430,-88.6490,5.0,4.6,180.0,,'1111122,1111122,1111122' 
CenGOOS,ioos:station:wmo:42067:1,2011-05-19T00:00:00Z,30.0430,-88.6490,5.0,4.6,170.0,,'1111122,1111122,1111122' 
CenGOOS,ioos:station:wmo:42067:1,2011-05-19T05:00:00Z,30.0430,-88.6490,5.0,5.7,160.0,,'1111122,1111122,1111122' 
CenGOOS,ioos:station:wmo:42067:1,2011-05-19T07:00:00Z,30.0430,-88.6490,5.0,5.7,170.0,,'1111122,1111122,1111122' 
CenGOOS,ioos:station:wmo:42067:1,2011-05-19T15:00:00Z,30.0430,-88.6490,5.0,5.7,140.0,,'1111122,1111122,1111122' 
CenGOOS,ioos:station:wmo:42067:1,2011-05-20T03:00:00Z,30.0430,-88.6490,5.0,7.7,140.0,,'1111122,1111122,1111122' 
CenGOOS,ioos:station:wmo:42067:1,2011-05-20T05:00:00Z,30.0430,-88.6490,5.0,6.7,150.0,,'1111122,1111122,1111122' 
CenGOOS,ioos:station:wmo:42067:1,2011-05-20T09:00:00Z,30.0430,-88.6490,5.0,4.6,140.0,,'1111122,1111122,1111122' 
CenGOOS,ioos:station:wmo:42067:1,2011-05-20T10:00:00Z,30.0430,-88.6490,5.0,4.6,140.0,,'1111122,1111122,1111122' 
CenGOOS,ioos:station:wmo:42067:1,2011-05-20T11:00:00Z,30.0430,-88.6490,5.0,3.6,130.0,,'1111122,1111122,1111122' 
CenGOOS,ioos:station:wmo:42067:1,2011-05-20T12:00:00Z,30.0430,-88.6490,5.0,3.6,140.0,,'1111122,1111122,1111122' 
CenGOOS,ioos:station:wmo:42067:1,2011-05-20T13:00:00Z,30.0430,-88.6490,5.0,3.6,140.0,,'1111122,1111122,1111122' 
CenGOOS,ioos:station:wmo:42067:1,2011-05-20T23:00:00Z,30.0430,-88.6490,5.0,6.7,130.0,,'1111122,1111122,1111122' 
CenGOOS,ioos:station:wmo:42067:1,2011-05-21T01:00:00Z,30.0430,-88.6490,5.0,7.7,130.0,,'1111122,1111122,1111122' 
CenGOOS,ioos:station:wmo:42067:1,2011-05-21T03:00:00Z,30.0430,-88.6490,5.0,6.7,150.0,,'1111122,1111122,1111122' 
CenGOOS,ioos:station:wmo:42067:1,2011-05-21T05:00:00Z,30.0430,-88.6490,5.0,5.7,150.0,,'1111122,1111122,1111122' 
CenGOOS,ioos:station:wmo:42067:1,2011-05-21T08:00:00Z,30.0430,-88.6490,5.0,4.6,140.0,,'1111122,1111122,1111122' 
CenGOOS,ioos:station:wmo:42067:1,2011-05-21T09:00:00Z,30.0430,-88.6490,5.0,5.7,140.0,,'1111122,1111122,1111122' 
CenGOOS,ioos:station:wmo:42067:1,2011-05-21T10:00:00Z,30.0430,-88.6490,5.0,2.6,160.0,,'1111122,1111122,1111122' 
CenGOOS,ioos:station:wmo:42067:1,2011-05-21T12:00:00Z,30.0430,-88.6490,5.0,0.5,110.0,,'1111122,1111122,1111122' 
CenGOOS,ioos:station:wmo:42067:1,2011-05-21T13:00:00Z,30.0430,-88.6490,5.0,0.5,320.0,,'1111122,1111122,1111122' 
CenGOOS,ioos:station:wmo:42067:1,2011-05-21T16:00:00Z,30.0430,-88.6490,5.0,2.6,120.0,,'1111122,1111122,1111122' 
CenGOOS,ioos:station:wmo:42067:1,2011-05-21T18:00:00Z,30.0430,-88.6490,5.0,5.7,150.0,,'1111122,1111122,1111122' 
CenGOOS,ioos:station:wmo:42067:1,2011-05-21T23:00:00Z,30.0430,-88.6490,5.0,3.6,170.0,,'1111122,1111122,1111122' 
CenGOOS,ioos:station:wmo:42067:1,2011-05-22T05:00:00Z,30.0430,-88.6490,5.0,5.7,160.0,,'1111122,1111122,1111122' 
CenGOOS,ioos:station:wmo:42067:1,2011-05-22T07:00:00Z,30.0430,-88.6490,5.0,5.7,170.0,,'1111122,1111122,1111122' 
CenGOOS,ioos:station:wmo:42067:1,2011-05-22T15:00:00Z,30.0430,-88.6490,5.0,3.6,160.0,,'1111122,1111122,1111122' 
CenGOOS,ioos:station:wmo:42067:1,2011-05-22T16:00:00Z,30.0430,-88.6490,5.0,2.6,160.0,,'1111122,1111122,1111122' 
CenGOOS,ioos:station:wmo:42067:1,2011-05-22T17:00:00Z,30.0430,-88.6490,5.0,1.5,150.0,,'1111122,1111122,1111122' 
CenGOOS,ioos:station:wmo:42067:1,2011-05-22T18:00:00Z,30.0430,-88.6490,5.0,1.5,150.0,,'1111122,1111122,1111122' 
CenGOOS,ioos:station:wmo:42067:1,2011-05-22T20:00:00Z,30.0430,-88.6490,5.0,3.6,160.0,,'1111122,1111122,1111122' 
CenGOOS,ioos:station:wmo:42067:1,2011-05-22T22:00:00Z,30.0430,-88.6490,5.0,4.6,160.0,,'1111122,1111122,1111122' 
CenGOOS,ioos:station:wmo:42067:1,2011-05-23T04:00:00Z,30.0430,-88.6490,5.0,4.6,170.0,,'1111122,1111122,1111122' 
CenGOOS,ioos:station:wmo:42067:1,2011-05-23T06:00:00Z,30.0430,-88.6490,5.0,4.6,170.0,,'1111122,1111122,1111122' 
CenGOOS,ioos:station:wmo:42067:1,2011-05-23T12:00:00Z,30.0430,-88.6490,5.0,1.5,210.0,,'1111122,1111122,1111122' 
CenGOOS,ioos:station:wmo:42067:1,2011-05-24T02:00:00Z,30.0430,-88.6490,5.0,5.7,150.0,,'1111122,1111122,1111122' 
CenGOOS,ioos:station:wmo:42067:1,2011-05-24T04:00:00Z,30.0430,-88.6490,5.0,6.7,150.0,,'1111122,1111122,1111122' 
CenGOOS,ioos:station:wmo:42067:1,2011-05-24T06:00:00Z,30.0430,-88.6490,5.0,7.7,170.0,,'1111122,1111122,1111122' 
CenGOOS,ioos:station:wmo:42067:1,2011-05-24T08:00:00Z,30.0430,-88.6490,5.0,7.7,170.0,,'1111122,1111122,1111122' 
CenGOOS,ioos:station:wmo:42067:1,2011-05-24T10:00:00Z,30.0430,-88.6490,5.0,6.7,180.0,,'1111122,1111122,1111122' 
CenGOOS,ioos:station:wmo:42067:1,2011-05-24T11:00:00Z,30.0430,-88.6490,5.0,5.7,180.0,,'1111122,1111122,1111122' 
CenGOOS,ioos:station:wmo:42067:1,2011-05-24T12:00:00Z,30.0430,-88.6490,5.0,4.6,180.0,,'1111122,1111122,1111122' 
CenGOOS,ioos:station:wmo:42067:1,2011-05-24T22:00:00Z,30.0430,-88.6490,5.0,5.7,170.0,,'1111122,1111122,1111122' 
CenGOOS,ioos:station:wmo:42067:1,2011-05-25T00:00:00Z,30.0430,-88.6490,5.0,6.7,160.0,,'1111122,1111122,1111122' 
CenGOOS,ioos:station:wmo:42067:1,2011-05-25T02:00:00Z,30.0430,-88.6490,5.0,6.7,160.0,,'1111122,1111122,1111122' 
CenGOOS,ioos:station:wmo:42067:1,2011-05-25T07:00:00Z,30.0430,-88.6490,5.0,7.7,160.0,,'1111122,1111122,1111122' 
CenGOOS,ioos:station:wmo:42067:1,2011-05-25T15:00:00Z,30.0430,-88.6490,5.0,6.7,170.0,,'1111122,1111122,1111122' 
CenGOOS,ioos:station:wmo:42067:1,2011-05-25T17:00:00Z,30.0430,-88.6490,5.0,6.7,170.0,,'1111122,1111122,1111122' 
CenGOOS,ioos:station:wmo:42067:1,2011-05-25T20:00:00Z,30.0430,-88.6490,5.0,6.7,160.0,,'1111122,1111122,1111122' 
CenGOOS,ioos:station:wmo:42067:1,2011-05-26T04:00:00Z,30.0430,-88.6490,5.0,7.7,180.0,,'1111122,1111122,1111122' 
CenGOOS,ioos:station:wmo:42067:1,2011-05-26T06:00:00Z,30.0430,-88.6490,5.0,6.7,190.0,,'1111122,1111122,1111122' 
CenGOOS,ioos:station:wmo:42067:1,2011-05-26T07:00:00Z,30.0430,-88.6490,5.0,6.7,200.0,,'1111122,1111122,1111122' 
CenGOOS,ioos:station:wmo:42067:1,2011-05-26T11:00:00Z,30.0430,-88.6490,5.0,6.7,210.0,,'1111122,1111122,1111122' 
CenGOOS,ioos:station:wmo:42067:1,2011-05-26T14:00:00Z,30.0430,-88.6490,5.0,6.7,210.0,,'1111122,1111122,1111122' 
CenGOOS,ioos:station:wmo:42067:1,2011-05-26T15:00:00Z,30.0430,-88.6490,5.0,7.7,210.0,,'1111122,1111122,1111122' 
 
DISCLAIMER: The Gulf of Mexico Coastal and Ocean Observing (GCOOS) Data Portal aggregates data from the regional data providers for the convenience of all data users. Data published on this website should not be used for navigation or certain other uses as we cannot guarantee data accuracy or availability. The data and delivery services are provided 'as is' without warranty of any kind. Data Source: Gulf of Mexico Coastal Ocean Observing System Data Portal (http://data.gcoos.org/) 
